Date String (YYYY-MM-DD hh:mm:ss) UTC,Instrument flags,Ambient pressure (hPa),Sample flow (lpm),Bypass flow (lpm),Sample temperature (°C),Ambient temperature (°C),ASC tube jacket temperature (°C),LED temperature (°C),Box temperature (°C),Sample RH (%),Span deviation,Mass concentration (μg/m³),Mass concentration (μg/m³),Mass concentration (μg/m³)
DateTimeUTC,F1_M11,P_M11,Q1_M11,Q2_M11,T1_M11,T2_M11,T3_M11,T4_M11,T5_M11,U1_M11,ZSPAN_M11,X0_M11,X2_M11,X1_M11
2022-07-28 16:00:00,,0833.3,5.00,0.00,30.7,29.0,00.0,39.2,32.2,34.2,0000.0,0007.04,0003.18,0002.34
2022-07-28 16:01:00,,0833.3,5.00,0.00,30.7,29.1,00.0,39.2,32.2,33.9,0000.0,0007.03,0003.22,0002.41
2022-07-28 16:02:00,,0833.3,4.99,0.00,30.7,29.1,00.0,39.2,32.2,33.9,0000.0,0007.12,0003.25,0002.48
2022-07-28 16:03:00,,0833.3,5.00,0.00,30.7,29.2,00.0,39.2,32.3,34.2,0000.0,0007.16,0003.29,0002.55
2022-07-28 16:04:00,,0833.3,5.00,0.00,30.7,29.2,00.0,39.2,32.3,34.4,0000.0,0006.08,0003.34,0002.59
2022-07-28 16:05:00,,0833.2,4.99,0.00,30.7,29.3,00.0,39.3,32.3,34.4,0000.0,0005.51,0003.33,0002.60
2022-07-28 16:06:00,,0833.2,5.00,0.00,30.7,29.3,00.0,39.3,32.3,34.5,0000.0,0006.12,0003.33,0002.62
2022-07-28 16:07:00,,0833.1,5.01,0.00,30.7,29.3,00.0,39.3,32.3,34.5,0000.0,0006.09,0003.32,0002.62
2022-07-28 16:08:00,,0833.2,5.00,0.00,30.7,29.4,00.0,39.3,32.4,34.3,0000.0,0005.96,0003.32,0002.63
2022-07-28 16:09:00,,0833.1,4.99,0.00,30.7,29.4,00.0,39.3,32.4,34.8,0000.0,0005.93,0003.30,0002.63
2022-07-28 16:10:00,,0833.1,5.00,0.00,30.8,29.4,00.0,39.3,32.4,34.6,0000.0,0006.14,0003.31,0002.63
2022-07-28 16:11:00,,0833.1,5.00,0.00,30.9,29.3,00.0,39.3,32.5,34.9,0000.0,0006.14,0003.30,0002.62
2022-07-28 16:12:00,,0833.2,5.00,0.00,30.9,28.6,00.0,39.3,32.4,35.0,0000.0,0006.20,0003.28,0002.58
2022-07-28 16:13:00,,0833.2,5.00,0.00,30.9,27.9,00.0,39.3,32.3,34.0,0000.0,0006.19,0003.27,0002.56
2022-07-28 16:14:00,,0833.2,5.00,0.00,30.9,27.7,00.0,39.3,32.2,33.6,0000.0,0005.99,0003.22,0002.51
2022-07-28 16:15:00,,0833.1,5.01,0.00,30.9,27.7,00.0,39.2,32.0,33.1,0000.0,0005.69,0003.16,0002.49
2022-07-28 16:16:00,,0833.2,4.99,0.00,30.8,27.8,00.0,39.2,32.0,33.6,0000.0,0005.70,0003.17,0002.50
2022-07-28 16:17:00,,0833.2,5.01,0.00,30.8,28.0,00.0,39.2,32.0,33.3,0000.0,0005.18,0003.17,0002.49
2022-07-28 16:18:00,,0833.2,4.99,0.00,30.7,28.1,00.0,39.2,32.0,33.4,0000.0,0005.01,0003.16,0002.50
2022-07-28 16:19:00,,0833.2,4.99,0.00,30.7,28.3,00.0,39.2,32.0,33.4,0000.0,0005.14,0003.19,0002.52
2022-07-28 16:20:00,,0833.2,5.00,0.00,30.7,28.4,00.0,39.2,32.1,34.1,0000.0,0004.98,0003.18,0002.53
2022-07-28 16:21:00,,0833.1,4.99,0.00,30.7,28.5,00.0,39.2,32.1,33.9,0000.0,0004.78,0003.17,0002.55
2022-07-28 16:22:00,,0833.2,5.00,0.00,30.7,28.6,00.0,39.2,32.1,34.0,0000.0,0004.53,0003.15,0002.58
2022-07-28 16:23:00,,0833.2,5.01,0.00,30.7,28.7,00.0,39.3,32.1,33.7,0000.0,0004.46,0003.16,0002.63
2022-07-28 16:24:00,,0833.2,5.00,0.00,30.7,28.8,00.0,39.3,32.1,34.3,0000.0,0004.58,0003.18,0002.66
2022-07-28 16:25:00,,0833.1,4.99,0.00,30.7,28.9,00.0,39.3,32.2,34.3,0000.0,0004.69,0003.22,0002.71
2022-07-28 16:26:00,,0833.2,5.01,0.00,30.7,29.0,00.0,39.3,32.2,34.6,0000.0,0004.83,0003.26,0002.76
2022-07-28 16:27:00,,0833.2,5.00,0.00,30.7,29.0,00.0,39.3,32.3,33.9,0000.0,0005.71,0003.32,0002.80
2022-07-28 16:28:00,,0833.2,5.00,0.00,30.8,29.1,00.0,39.3,32.3,33.9,0000.0,0006.40,0003.37,0002.83
2022-07-28 16:29:00,,0833.2,5.00,0.00,30.8,29.2,00.0,39.3,32.3,33.8,0000.0,0006.49,0003.38,0002.84
2022-07-28 16:30:00,,0833.2,5.01,0.00,30.8,29.2,00.0,39.3,32.3,33.5,0000.0,0006.45,0003.38,0002.86
2022-07-28 16:31:00,,0833.1,4.99,0.00,30.8,29.3,00.0,39.3,32.4,33.2,0000.0,0006.60,0003.42,0002.90
2022-07-28 16:32:00,,0833.1,5.01,0.00,30.8,29.3,00.0,39.3,32.4,33.7,0000.0,0006.66,0003.45,0002.94
2022-07-28 16:33:00,,0833.1,5.01,0.00,30.8,29.3,00.0,39.4,32.4,33.9,0000.0,0006.62,0003.45,0002.96
2022-07-28 16:34:00,,0833.2,5.00,0.00,30.8,29.4,00.0,39.4,32.4,33.8,0000.0,0006.58,0003.45,0002.98
2022-07-28 16:35:00,,0833.2,5.00,0.00,30.8,29.0,00.0,39.3,32.4,34.0,0000.0,0006.69,0003.49,0003.00
2022-07-28 16:36:00,,0833.1,5.00,0.00,30.8,28.2,00.0,39.3,32.3,33.5,0000.0,0006.66,0003.49,0003.00
2022-07-28 16:37:00,,0833.2,5.00,0.00,30.7,27.8,00.0,39.3,32.1,34.1,0000.0,0006.63,0003.48,0003.00
2022-07-28 16:38:00,,0833.1,5.01,0.00,30.6,27.7,00.0,39.2,32.0,33.9,0000.0,0005.97,0003.45,0002.99
2022-07-28 16:39:00,,0833.2,4.99,0.00,30.5,27.7,00.0,39.2,31.9,34.1,0000.0,0005.13,0003.39,0002.98
2022-07-28 16:40:00,,0833.2,5.01,0.00,30.4,27.9,00.0,39.2,31.9,33.9,0000.0,0004.96,0003.39,0002.99
2022-07-28 16:41:00,,0833.2,5.00,0.00,30.4,28.0,00.0,39.2,31.9,33.8,0000.0,0005.48,0003.41,0003.05
2022-07-28 16:42:00,,0833.2,5.00,0.00,30.4,28.2,00.0,39.1,31.9,34.0,0000.0,0005.82,0003.42,0003.09
2022-07-28 16:43:00,,0833.2,5.00,0.00,30.4,28.3,00.0,39.1,32.0,34.0,0000.0,0005.78,0003.43,0003.12
2022-07-28 16:44:00,,0833.1,5.01,0.00,30.4,28.4,00.0,39.1,32.0,34.2,0000.0,0005.88,0003.47,0003.15
2022-07-28 16:45:00,,0833.2,5.00,0.00,30.4,28.6,00.0,39.1,32.0,34.6,0000.0,0006.06,0003.50,0003.17
2022-07-28 16:46:00,,0833.1,5.00,0.00,30.4,28.7,00.0,39.1,32.0,34.5,0000.0,0005.84,0003.47,0003.17
2022-07-28 16:47:00,,0833.2,4.98,0.00,30.4,28.8,00.0,39.1,32.1,33.8,0000.0,0005.83,0003.48,0003.18
2022-07-28 16:48:00,,0833.1,5.01,0.00,30.5,28.8,00.0,39.1,32.1,34.1,0000.0,0005.74,0003.47,0003.18
2022-07-28 16:49:00,,0833.1,5.01,0.00,30.5,28.9,00.0,39.1,32.2,34.1,0000.0,0005.66,0003.45,0003.18
2022-07-28 16:50:00,,0833.2,5.01,0.00,30.5,29.0,00.0,39.1,32.2,33.5,0000.0,0005.73,0003.47,0003.18
2022-07-28 16:51:00,,0833.2,5.00,0.00,30.5,29.1,00.0,39.1,32.2,33.7,0000.0,0005.96,0003.52,0003.18
2022-07-28 16:52:00,,0833.2,4.99,0.00,30.6,29.1,00.0,39.1,32.2,33.2,0000.0,0005.28,0003.49,0003.16
2022-07-28 16:53:00,,0833.2,4.99,0.00,30.6,29.2,00.0,39.2,32.3,33.2,0000.0,0004.90,0003.46,0003.15
2022-07-28 16:54:00,,0833.2,5.00,0.00,30.6,29.2,00.0,39.2,32.3,33.3,0000.0,0005.04,0003.47,0003.15
2022-07-28 16:55:00,,0833.3,5.01,0.00,30.6,29.2,00.0,39.2,32.3,33.4,0000.0,0005.11,0003.46,0003.14
2022-07-28 16:56:00,,0833.3,5.00,0.00,30.6,29.3,00.0,39.2,32.3,33.6,0000.0,0005.01,0003.43,0003.11
2022-07-28 16:57:00,,0833.1,5.00,0.00,30.6,28.8,00.0,39.2,32.3,32.4,0000.0,0005.02,0003.40,0003.06
2022-07-28 16:58:00,,0833.2,5.01,0.00,30.5,28.0,00.0,39.1,32.1,31.9,0000.0,0004.91,0003.35,0003.01
2022-07-28 16:59:00,,0833.1,4.97,0.00,30.5,27.7,00.0,39.1,32.0,32.0,0000.0,0004.84,0003.32,0002.94
